Weather History for KHBR - June, 2013

Change the Weather History Date:

Thursday, June 27, 2013

  Actual Average Record
Temperature  
Mean Temperature 92 °F -  
Max Temperature 109 °F 90 °F - (-1)
Min Temperature 75 °F 67 °F - (-1)
Cooling Degree Days 26    
Growing Degree Days 42 (Base 50)    
Moisture  
Dew Point 61 °F    
Average Humidity 41    
Maximum Humidity 76    
Minimum Humidity 16    
Precipitation  
Precipitation 0.00 in - - ()
Sea Level Pressure  
Sea Level Pressure 29.91 in    
Wind  
Wind Speed 12 mph (SSE)    
Max Wind Speed 38 mph    
Max Gust Speed 47 mph    
Visibility 10 miles    
Events Thunderstorm    
Averages and records for this station are not official NWS values.
T = Trace of Precipitation, MM = Missing Value Source: NWS Daily Summary

Daily Weather History Graph

Daily Weather History Graph

Search for Another Location

Airport or City:

Trip Planner

Search our weather history database for the weather conditions in past years. The results will help you decide how hot, cold, wet, or windy it might be!

Date:

Astronomy

Jun. 27, 2013 Rise Set
Actual Time 6:24 AM CDT 8:54 PM CDT
Civil Twilight 5:54 AM CDT 9:23 PM CDT
Nautical Twilight 5:18 AM CDT 10:00 PM CDT
Astronomical Twilight 4:37 AM CDT 10:40 PM CDT
Moon No Moon Rise 11:15 AM CDT (6/27)
Length of Visible Light 15h 29m
Length of Day
14h 29m
Waning Gibbous, 76% of the Moon is Illuminated
Jun 27
Waning Gibbous
Jun 29
Last Quarter
Jul 8
New
Jul 15
First Quarter
Jul 22
Full

Hourly Weather History & Observations

Time (CDT) Temp. Heat Index Dew Point Humidity Pressure Visibility Wind Dir Wind Speed Gust Speed Precip Events Conditions
12:53 AM 84.9 °F 87.6 °F 66.9 °F 55% 29.86 in 10.0 mi SSE 10.4 mph - N/A   Clear
1:53 AM 82.9 °F 85.4 °F 66.9 °F 58% 29.85 in 10.0 mi South 9.2 mph - N/A   Clear
2:53 AM 81.0 °F 83.3 °F 66.9 °F 62% 29.86 in 10.0 mi ESE 6.9 mph - N/A   Clear
3:53 AM 78.1 °F - 66.0 °F 66% 29.87 in 10.0 mi SE 6.9 mph - N/A   Clear
4:53 AM 75.0 °F - 66.9 °F 76% 29.87 in 10.0 mi ESE 5.8 mph - N/A   Clear
5:53 AM 75.9 °F - 66.0 °F 71% 29.88 in 10.0 mi South 4.6 mph - N/A   Clear
6:53 AM 78.1 °F - 66.0 °F 66% 29.90 in 10.0 mi South 6.9 mph - N/A   Clear
7:53 AM 82.9 °F 84.6 °F 64.9 °F 54% 29.90 in 10.0 mi South 16.1 mph - N/A   Clear
8:53 AM 87.1 °F 88.9 °F 64.9 °F 48% 29.91 in 10.0 mi SSW 15.0 mph - N/A   Clear
9:53 AM 93.0 °F 95.0 °F 64.9 °F 39% 29.91 in 10.0 mi SSW 18.4 mph 23.0 mph N/A   Clear
10:53 AM 97.0 °F 98.3 °F 63.0 °F 32% 29.90 in 10.0 mi SW 13.8 mph 23.0 mph N/A   Clear
11:53 AM 100.0 °F 101.8 °F 63.0 °F 29% 29.90 in 10.0 mi SW 15.0 mph 20.7 mph N/A   Clear
12:53 PM 104.0 °F 104.6 °F 59.0 °F 23% 29.89 in 10.0 mi SSW 13.8 mph 18.4 mph N/A   Clear
1:53 PM 105.1 °F 105.0 °F 57.9 °F 21% 29.89 in 10.0 mi South 16.1 mph 19.6 mph N/A   Clear
2:53 PM 107.1 °F 106.7 °F 55.9 °F 19% 29.87 in 10.0 mi SW 13.8 mph 24.2 mph N/A   Clear
3:53 PM 107.1 °F 105.4 °F 53.1 °F 17% 29.86 in 10.0 mi South 9.2 mph 19.6 mph N/A   Clear
4:53 PM 108.0 °F 105.9 °F 53.1 °F 16% 29.84 in 10.0 mi South 8.1 mph 23.0 mph N/A   Clear
5:53 PM 107.1 °F 105.4 °F 54.0 °F 17% 29.81 in 10.0 mi South 15.0 mph 21.9 mph N/A   Clear
6:53 PM 106.0 °F 104.5 °F 54.0 °F 18% 29.79 in 10.0 mi South 15.0 mph 21.9 mph N/A   Clear
7:53 PM 102.0 °F - 52.0 °F 19% 29.82 in 10.0 mi South 11.5 mph - N/A   Clear
8:53 PM 93.9 °F 92.6 °F 57.0 °F 29% 29.85 in 10.0 mi SSE 9.2 mph - N/A   Clear
9:53 PM 91.9 °F 90.3 °F 55.9 °F 30% 29.95 in 9.0 mi NNE 25.3 mph 40.3 mph N/A   Partly Cloudy
10:08 PM 87.8 °F 87.6 °F 60.8 °F 40% 30.05 in 5.0 mi NE 38.0 mph 47.2 mph N/A   Haze
10:25 PM 82.4 °F 83.4 °F 62.6 °F 51% 30.09 in 9.0 mi NE 29.9 mph 42.6 mph N/A Thunderstorm Mostly Cloudy
10:53 PM 82.0 °F 83.0 °F 62.1 °F 51% 30.04 in 10.0 mi ENE 25.3 mph 39.1 mph N/A Thunderstorm Mostly Cloudy
11:25 PM 82.4 °F 83.4 °F 62.6 °F 51% 30.09 in 10.0 mi East 18.4 mph - N/A   Overcast
11:53 PM 81.0 °F 81.7 °F 61.0 °F 50% 29.99 in 10.0 mi East 12.7 mph - N/A   Mostly Cloudy